Time,TemperatureF,DewpointF,PressureIn,WindDirection,WindDirectionDegrees,WindSpeedMPH,WindSpeedGustMPH,Humidity,HourlyPrecipIn,Conditions,Clouds,dailyrainin,SoftwareType,DateUTC
2013-04-29 00:01:00,57.4,51.9,29.78,SSW,202,0.2,1.1,82,0.00,CLR,SKC,0.26,WeatherDisplay:10.37,2013-04-29 04:01:00,
2013-04-29 00:06:00,57.4,51.9,29.79,WSW,248,0.5,3.5,82,0.00,RA,SKC,0.00,WeatherDisplay:10.37,2013-04-29 04:06:00,
2013-04-29 00:11:00,57.4,51.9,29.79,WSW,248,0.0,0.0,82,0.00,RA,SKC,0.00,WeatherDisplay:10.37,2013-04-29 04:11:00,
2013-04-29 00:16:00,57.4,51.9,29.79,WSW,248,0.6,1.1,82,0.00,CLR,SKC,0.00,WeatherDisplay:10.37,2013-04-29 04:16:00,
2013-04-29 00:21:00,57.2,51.8,29.79,WSW,248,0.0,0.0,82,0.00,CLR,SKC,0.00,WeatherDisplay:10.37,2013-04-29 04:21:00,
2013-04-29 00:26:00,57.0,51.6,29.79,WSW,248,0.0,0.0,82,0.00,CLR,SKC,0.00,WeatherDisplay:10.37,2013-04-29 04:26:00,
2013-04-29 00:31:00,57.0,51.6,29.79,WSW,248,0.0,0.0,82,0.00,CLR,SKC,0.00,WeatherDisplay:10.37,2013-04-29 04:31:00,
2013-04-29 00:36:00,57.0,51.6,29.78,SW,225,0.4,2.3,82,0.00,CLR,SKC,0.00,WeatherDisplay:10.37,2013-04-29 04:36:00,
2013-04-29 00:41:00,57.0,51.2,29.79,SW,225,0.4,2.3,81,0.00,CLR,SKC,0.00,WeatherDisplay:10.37,2013-04-29 04:41:00,
2013-04-29 00:46:00,57.0,51.6,29.79,SSW,202,0.1,3.1,82,0.00,CLR,SKC,0.00,WeatherDisplay:10.37,2013-04-29 04:46:00,
2013-04-29 00:51:00,57.0,51.6,29.79,SW,225,0.0,2.3,82,0.00,CLR,SKC,0.00,WeatherDisplay:10.37,2013-04-29 04:51:00,
2013-04-29 00:56:00,57.0,51.6,29.79,SW,225,0.3,1.1,82,0.00,CLR,SKC,0.00,WeatherDisplay:10.37,2013-04-29 04:56:00,
2013-04-29 01:01:00,57.0,51.6,29.79,SW,225,0.0,0.0,82,0.00,CLR,SKC,0.00,WeatherDisplay:10.37,2013-04-29 05:01:00,
2013-04-29 01:06:00,57.0,51.2,29.79,WSW,248,0.0,0.0,81,0.00,CLR,SKC,0.00,WeatherDisplay:10.37,2013-04-29 05:06:00,
2013-04-29 01:11:00,56.8,51.1,29.79,WSW,248,0.5,0.0,81,0.00,CLR,SKC,0.00,WeatherDisplay:10.37,2013-04-29 05:11:00,
2013-04-29 01:16:00,56.8,51.1,29.79,WSW,248,0.5,1.1,81,0.00,CLR,SKC,0.00,WeatherDisplay:10.37,2013-04-29 05:16:00,
2013-04-29 01:21:00,56.8,51.1,29.79,WSW,248,0.0,0.0,81,0.00,CLR,SKC,0.00,WeatherDisplay:10.37,2013-04-29 05:21:00,
2013-04-29 01:26:00,56.8,51.1,29.79,WSW,248,0.0,0.0,81,0.00,CLR,SKC,0.00,WeatherDisplay:10.37,2013-04-29 05:26:00,
2013-04-29 01:31:00,56.8,51.1,29.79,SW,225,0.0,0.0,81,0.00,CLR,SKC,0.00,WeatherDisplay:10.37,2013-04-29 05:31:00,
2013-04-29 01:36:00,56.7,50.9,29.80,SW,225,0.0,0.0,81,0.00,CLR,SKC,0.00,WeatherDisplay:10.37,2013-04-29 05:36:00,
2013-04-29 01:41:00,56.5,50.7,29.80,SW,225,0.0,0.0,81,0.00,CLR,SKC,0.00,WeatherDisplay:10.37,2013-04-29 05:41:00,
2013-04-29 01:46:00,56.5,50.7,29.79,SW,225,0.0,0.0,81,0.00,CLR,SKC,0.00,WeatherDisplay:10.37,2013-04-29 05:46:00,
2013-04-29 01:51:00,56.5,50.7,29.79,SW,225,0.0,0.0,81,0.00,CLR,SKC,0.00,WeatherDisplay:10.37,2013-04-29 05:51:00,
2013-04-29 01:56:00,56.5,50.7,29.79,SW,225,0.0,0.0,81,0.00,CLR,SKC,0.00,WeatherDisplay:10.37,2013-04-29 05:56:00,
2013-04-29 02:01:00,56.5,50.7,29.79,SW,225,0.0,0.0,81,0.00,CLR,SKC,0.00,WeatherDisplay:10.37,2013-04-29 06:01:00,
2013-04-29 02:06:00,56.5,51.1,29.79,SW,225,0.0,0.0,82,0.00,CLR,SKC,0.00,WeatherDisplay:10.37,2013-04-29 06:06:00,
2013-04-29 02:11:00,56.5,51.1,29.80,SW,225,0.0,0.0,82,0.00,CLR,SKC,0.00,WeatherDisplay:10.37,2013-04-29 06:11:00,
2013-04-29 02:16:00,56.5,50.7,29.80,SSW,202,0.0,0.0,81,0.00,CLR,SKC,0.00,WeatherDisplay:10.37,2013-04-29 06:16:00,
2013-04-29 02:21:00,56.5,50.7,29.79,SSW,202,0.0,0.0,81,0.00,CLR,SKC,0.00,WeatherDisplay:10.37,2013-04-29 06:21:00,
2013-04-29 02:26:00,56.5,50.7,29.79,SSW,202,0.0,0.0,81,0.00,CLR,SKC,0.00,WeatherDisplay:10.37,2013-04-29 06:26:00,
2013-04-29 02:31:00,56.5,50.7,29.79,SSW,202,0.3,2.3,81,0.00,CLR,SKC,0.00,WeatherDisplay:10.37,2013-04-29 06:31:00,
2013-04-29 02:36:00,56.5,50.7,29.79,SSW,202,0.3,1.1,81,0.00,CLR,SKC,0.00,WeatherDisplay:10.37,2013-04-29 06:36:00,
2013-04-29 02:41:00,56.3,50.5,29.79,SW,225,1.1,1.3,81,0.00,CLR,SKC,0.00,WeatherDisplay:10.37,2013-04-29 06:41:00,
2013-04-29 02:46:00,56.3,50.5,29.79,SSW,202,0.4,0.0,81,0.00,CLR,SKC,0.00,WeatherDisplay:10.37,2013-04-29 06:46:00,
2013-04-29 02:51:00,56.3,50.5,29.79,SSW,202,0.0,0.0,81,0.00,CLR,SKC,0.00,WeatherDisplay:10.37,2013-04-29 06:51:00,
2013-04-29 02:56:00,56.3,50.5,29.79,SSW,202,0.0,0.0,81,0.00,CLR,SKC,0.00,WeatherDisplay:10.37,2013-04-29 06:56:00,
2013-04-29 03:01:00,56.3,50.5,29.79,SSW,202,0.0,1.1,81,0.00,CLR,SKC,0.00,WeatherDisplay:10.37,2013-04-29 07:01:00,
2013-04-29 03:06:00,56.1,50.4,29.79,SSW,202,0.0,0.0,81,0.00,CLR,SKC,0.00,WeatherDisplay:10.37,2013-04-29 07:06:00,
2013-04-29 03:11:00,56.1,50.4,29.79,SW,225,0.8,4.0,81,0.00,CLR,SKC,0.00,WeatherDisplay:10.37,2013-04-29 07:11:00,
2013-04-29 03:16:00,56.1,50.4,29.79,SSW,202,0.6,2.3,81,0.00,CLR,SKC,0.00,WeatherDisplay:10.37,2013-04-29 07:16:00,
2013-04-29 03:21:00,56.1,50.4,29.79,SW,225,1.1,2.5,81,0.00,CLR,SKC,0.00,WeatherDisplay:10.37,2013-04-29 07:21:00,
2013-04-29 03:26:00,56.1,50.4,29.80,WSW,248,1.0,2.3,81,0.00,CLR,SKC,0.00,WeatherDisplay:10.37,2013-04-29 07:26:00,
2013-04-29 03:31:00,56.1,50.0,29.80,SW,225,0.0,0.0,80,0.00,CLR,SKC,0.00,WeatherDisplay:10.37,2013-04-29 07:31:00,
2013-04-29 03:36:00,56.1,50.0,29.80,SW,225,0.0,3.5,80,0.00,CLR,SKC,0.00,WeatherDisplay:10.37,2013-04-29 07:36:00,
2013-04-29 03:41:00,56.1,50.0,29.79,SW,225,0.0,0.0,80,0.00,CLR,SKC,0.00,WeatherDisplay:10.37,2013-04-29 07:41:00,
2013-04-29 03:46:00,56.1,50.0,29.79,SSW,202,0.0,3.5,80,0.00,CLR,SKC,0.00,WeatherDisplay:10.37,2013-04-29 07:46:00,
2013-04-29 03:51:00,56.1,50.0,29.79,WSW,248,0.1,2.2,80,0.00,CLR,SKC,0.00,WeatherDisplay:10.37,2013-04-29 07:51:00,
2013-04-29 03:56:00,56.1,50.0,29.79,WSW,248,0.0,0.0,80,0.00,CLR,SKC,0.00,WeatherDisplay:10.37,2013-04-29 07:56:00,
2013-04-29 04:01:00,56.1,50.0,29.80,WSW,248,0.0,0.0,80,0.00,CLR,SKC,0.00,WeatherDisplay:10.37,2013-04-29 08:01:00,
2013-04-29 04:06:00,56.1,50.0,29.80,WSW,248,0.1,3.5,80,0.00,CLR,SKC,0.00,WeatherDisplay:10.37,2013-04-29 08:06:00,
2013-04-29 04:11:00,56.1,50.0,29.80,WSW,248,0.7,3.6,80,0.00,CLR,SKC,0.00,WeatherDisplay:10.37,2013-04-29 08:11:00,
2013-04-29 04:16:00,56.1,50.0,29.79,West,270,0.2,1.1,80,0.00,CLR,SKC,0.00,WeatherDisplay:10.37,2013-04-29 08:16:00,
2013-04-29 04:21:00,56.1,50.0,29.79,West,270,0.0,0.0,80,0.00,CLR,SKC,0.00,WeatherDisplay:10.37,2013-04-29 08:21:00,
2013-04-29 04:26:00,55.9,49.9,29.79,West,270,0.3,0.0,80,0.00,CLR,SKC,0.00,WeatherDisplay:10.37,2013-04-29 08:26:00,
2013-04-29 04:31:00,55.9,49.9,29.79,SW,225,0.2,2.3,80,0.00,CLR,SKC,0.00,WeatherDisplay:10.37,2013-04-29 08:31:00,
2013-04-29 04:36:00,55.9,49.9,29.80,SW,225,1.4,3.5,80,0.00,CLR,SKC,0.00,WeatherDisplay:10.37,2013-04-29 08:36:00,
2013-04-29 04:41:00,55.9,49.9,29.80,WSW,248,1.2,3.5,80,0.00,CLR,SKC,0.00,WeatherDisplay:10.37,2013-04-29 08:41:00,
2013-04-29 04:46:00,55.9,49.9,29.80,WSW,248,2.3,3.8,80,0.00,CLR,SKC,0.00,WeatherDisplay:10.37,2013-04-29 08:46:00,
2013-04-29 04:51:00,55.9,49.9,29.80,WSW,248,1.0,3.5,80,0.00,CLR,SKC,0.00,WeatherDisplay:10.37,2013-04-29 08:51:00,
2013-04-29 04:56:00,55.9,49.9,29.80,WSW,248,1.0,2.3,80,0.00,CLR,SKC,0.00,WeatherDisplay:10.37,2013-04-29 08:56:00,
2013-04-29 05:01:00,55.9,49.9,29.80,SW,225,1.5,3.5,80,0.00,CLR,SKC,0.00,WeatherDisplay:10.37,2013-04-29 09:01:00,
2013-04-29 05:06:00,55.9,49.9,29.80,WSW,248,3.1,3.1,80,0.00,CLR,SKC,0.00,WeatherDisplay:10.37,2013-04-29 09:06:00,
2013-04-29 05:11:00,55.9,49.9,29.81,SW,225,0.0,5.8,80,0.00,CLR,SKC,0.00,WeatherDisplay:10.37,2013-04-29 09:11:00,
2013-04-29 05:16:00,55.9,49.9,29.81,SW,225,0.7,3.5,80,0.00,CLR,SKC,0.00,WeatherDisplay:10.37,2013-04-29 09:16:00,
2013-04-29 05:21:00,55.9,49.9,29.81,WSW,248,0.2,1.1,80,0.00,CLR,SKC,0.00,WeatherDisplay:10.37,2013-04-29 09:21:00,
2013-04-29 05:26:00,55.8,49.7,29.81,SW,225,1.0,3.5,80,0.00,CLR,SKC,0.00,WeatherDisplay:10.37,2013-04-29 09:26:00,
2013-04-29 05:31:00,55.8,49.7,29.81,WSW,248,0.0,4.6,80,0.00,CLR,SKC,0.00,WeatherDisplay:10.37,2013-04-29 09:31:00,
2013-04-29 05:36:00,55.8,49.7,29.81,WSW,248,1.5,5.8,80,0.00,CLR,SKC,0.00,WeatherDisplay:10.37,2013-04-29 09:36:00,
2013-04-29 05:41:00,55.8,49.7,29.82,SW,225,0.9,3.5,80,0.00,CLR,SKC,0.00,WeatherDisplay:10.37,2013-04-29 09:41:00,
2013-04-29 05:46:00,55.6,49.5,29.81,WSW,248,2.0,3.5,80,0.00,CLR,SKC,0.00,WeatherDisplay:10.37,2013-04-29 09:46:00,
2013-04-29 05:51:00,55.6,49.5,29.82,SW,225,1.0,3.5,80,0.00,CLR,SKC,0.00,WeatherDisplay:10.37,2013-04-29 09:51:00,
2013-04-29 05:56:00,55.6,49.5,29.82,WSW,248,0.2,5.8,80,0.00,CLR,SKC,0.00,WeatherDisplay:10.37,2013-04-29 09:56:00,
2013-04-29 06:01:00,55.4,49.3,29.82,SW,225,0.6,2.3,80,0.00,CLR,SKC,0.00,WeatherDisplay:10.37,2013-04-29 10:01:00,
2013-04-29 06:06:00,55.4,49.3,29.82,West,270,1.5,5.8,80,0.00,CLR,SKC,0.00,WeatherDisplay:10.37,2013-04-29 10:06:00,
2013-04-29 06:11:00,55.2,49.2,29.82,SW,225,1.8,5.1,80,0.00,CLR,SKC,0.00,WeatherDisplay:10.37,2013-04-29 10:11:00,
2013-04-29 06:16:00,55.2,49.2,29.83,WSW,248,0.4,2.3,80,0.00,CLR,SKC,0.00,WeatherDisplay:10.37,2013-04-29 10:16:00,
2013-04-29 06:21:00,55.2,49.5,29.83,SW,225,0.6,2.3,81,0.00,CLR,SKC,0.00,WeatherDisplay:10.37,2013-04-29 10:21:00,
2013-04-29 06:26:00,55.2,49.5,29.83,SW,225,1.4,6.9,81,0.00,CLR,SKC,0.00,WeatherDisplay:10.37,2013-04-29 10:26:00,
2013-04-29 06:31:00,55.0,49.3,29.83,SSW,202,2.1,2.3,81,0.00,CLR,SKC,0.00,WeatherDisplay:10.37,2013-04-29 10:31:00,
2013-04-29 06:36:00,55.0,49.3,29.84,WSW,248,4.0,4.6,81,0.00,CLR,SKC,0.00,WeatherDisplay:10.37,2013-04-29 10:36:00,
2013-04-29 06:41:00,54.9,49.1,29.84,SW,225,3.7,4.6,81,0.00,CLR,SKC,0.00,WeatherDisplay:10.37,2013-04-29 10:41:00,
2013-04-29 06:46:00,54.7,49.0,29.84,SW,225,2.3,4.6,81,0.00,CLR,SKC,0.00,WeatherDisplay:10.37,2013-04-29 10:46:00,
2013-04-29 06:51:00,54.7,49.0,29.84,WSW,248,1.2,2.3,81,0.00,CLR,SKC,0.00,WeatherDisplay:10.37,2013-04-29 10:51:00,
2013-04-29 06:56:00,54.7,49.0,29.84,WSW,248,3.0,3.5,81,0.00,CLR,SKC,0.00,WeatherDisplay:10.37,2013-04-29 10:56:00,
2013-04-29 07:01:00,54.7,49.3,29.84,SW,225,0.6,3.5,82,0.00,CLR,SKC,0.00,WeatherDisplay:10.37,2013-04-29 11:01:00,
2013-04-29 07:06:00,54.7,49.3,29.84,SW,225,1.3,4.6,82,0.00,CLR,SKC,0.00,WeatherDisplay:10.37,2013-04-29 11:06:00,
2013-04-29 07:11:00,54.5,49.1,29.85,WSW,248,3.6,5.8,82,0.00,CLR,SKC,0.00,WeatherDisplay:10.37,2013-04-29 11:11:00,
2013-04-29 07:16:00,54.5,49.1,29.84,WSW,248,2.5,8.1,82,0.00,CLR,SKC,0.00,WeatherDisplay:10.37,2013-04-29 11:16:00,
2013-04-29 07:21:00,54.3,48.9,29.84,West,270,1.1,3.5,82,0.00,CLR,SKC,0.00,WeatherDisplay:10.37,2013-04-29 11:21:00,
2013-04-29 07:26:00,54.3,48.9,29.84,West,270,1.0,5.8,82,0.00,CLR,SKC,0.00,WeatherDisplay:10.37,2013-04-29 11:26:00,
2013-04-29 07:31:00,54.3,48.9,29.85,WSW,248,0.0,3.5,82,0.00,CLR,SKC,0.00,WeatherDisplay:10.37,2013-04-29 11:31:00,
2013-04-29 07:36:00,54.3,48.9,29.85,West,270,2.8,4.6,82,0.00,CLR,SKC,0.00,WeatherDisplay:10.37,2013-04-29 11:36:00,
2013-04-29 07:41:00,54.5,49.1,29.85,SW,225,1.5,6.0,82,0.00,CLR,SKC,0.00,WeatherDisplay:10.37,2013-04-29 11:41:00,
2013-04-29 07:46:00,54.7,49.3,29.85,SW,225,1.5,3.5,82,0.00,CLR,SKC,0.00,WeatherDisplay:10.37,2013-04-29 11:46:00,
2013-04-29 07:51:00,54.7,49.3,29.85,WSW,248,0.5,0.0,82,0.00,CLR,SKC,0.00,WeatherDisplay:10.37,2013-04-29 11:51:00,
2013-04-29 07:56:00,54.9,49.5,29.85,West,270,1.0,2.7,82,0.00,CLR,SKC,0.00,WeatherDisplay:10.37,2013-04-29 11:56:00,
2013-04-29 08:01:00,55.2,49.8,29.85,West,270,1.0,4.7,82,0.00,CLR,SKC,0.00,WeatherDisplay:10.37,2013-04-29 12:01:00,
2013-04-29 08:06:00,55.2,49.8,29.85,WSW,248,1.1,3.5,82,0.00,CLR,SKC,0.00,WeatherDisplay:10.37,2013-04-29 12:06:00,
2013-04-29 08:11:00,55.6,50.5,29.85,West,270,2.8,2.8,83,0.00,CLR,SKC,0.00,WeatherDisplay:10.37,2013-04-29 12:11:00,
2013-04-29 08:16:00,55.6,50.5,29.85,West,270,2.6,3.5,83,0.00,CLR,SKC,0.00,WeatherDisplay:10.37,2013-04-29 12:16:00,
2013-04-29 08:21:00,55.8,50.7,29.85,West,270,3.2,4.6,83,0.00,CLR,SKC,0.00,WeatherDisplay:10.37,2013-04-29 12:21:00,
2013-04-29 08:26:00,55.8,50.7,29.86,WNW,292,0.8,3.5,83,0.00,CLR,SKC,0.00,WeatherDisplay:10.37,2013-04-29 12:26:00,
2013-04-29 08:31:00,55.9,50.9,29.86,SSW,202,1.1,2.3,83,0.00,CLR,SKC,0.00,WeatherDisplay:10.37,2013-04-29 12:31:00,
2013-04-29 08:36:00,56.1,51.0,29.86,WSW,248,1.8,2.3,83,0.00,CLR,SKC,0.00,WeatherDisplay:10.37,2013-04-29 12:36:00,
2013-04-29 08:41:00,56.1,51.0,29.86,SSW,202,1.4,2.3,83,0.00,CLR,SKC,0.00,WeatherDisplay:10.37,2013-04-29 12:41:00,
2013-04-29 08:46:00,56.5,51.4,29.87,SSW,202,0.5,3.5,83,0.00,CLR,SKC,0.00,WeatherDisplay:10.37,2013-04-29 12:46:00,
2013-04-29 08:51:00,56.5,51.4,29.86,WSW,248,0.7,3.5,83,0.00,CLR,SKC,0.00,WeatherDisplay:10.37,2013-04-29 12:51:00,
2013-04-29 08:56:00,56.8,51.7,29.87,WSW,248,0.0,3.5,83,0.00,CLR,SKC,0.00,WeatherDisplay:10.37,2013-04-29 12:56:00,
2013-04-29 09:01:00,56.8,51.7,29.87,West,270,1.0,1.1,83,0.00,CLR,SKC,0.00,WeatherDisplay:10.37,2013-04-29 13:01:00,
2013-04-29 09:06:00,57.0,51.9,29.87,WSW,248,1.9,2.3,83,0.00,CLR,SKC,0.00,WeatherDisplay:10.37,2013-04-29 13:06:00,
2013-04-29 09:11:00,57.0,51.9,29.87,WSW,248,0.5,2.3,83,0.00,CLR,SKC,0.00,WeatherDisplay:10.37,2013-04-29 13:11:00,
2013-04-29 09:16:00,57.4,52.3,29.86,WSW,248,0.1,0.0,83,0.00,CLR,SKC,0.00,WeatherDisplay:10.37,2013-04-29 13:16:00,
2013-04-29 09:21:00,57.9,52.8,29.87,SW,225,1.0,3.5,83,0.00,CLR,SKC,0.00,WeatherDisplay:10.37,2013-04-29 13:21:00,
2013-04-29 09:26:00,57.9,52.8,29.87,SSW,202,2.1,3.5,83,0.00,CLR,SKC,0.00,WeatherDisplay:10.37,2013-04-29 13:26:00,
2013-04-29 09:31:00,58.3,53.1,29.88,SW,225,2.2,3.5,83,0.00,CLR,SKC,0.00,WeatherDisplay:10.37,2013-04-29 13:31:00,
2013-04-29 09:36:00,58.5,53.3,29.88,West,270,1.4,0.0,83,0.00,CLR,SKC,0.00,WeatherDisplay:10.37,2013-04-29 13:36:00,
2013-04-29 09:41:00,58.5,53.3,29.87,SW,225,1.4,3.5,83,0.00,CLR,SKC,0.00,WeatherDisplay:10.37,2013-04-29 13:41:00,
2013-04-29 09:46:00,58.6,53.2,29.88,SSW,202,0.5,1.3,82,0.00,CLR,SKC,0.00,WeatherDisplay:10.37,2013-04-29 13:46:00,
2013-04-29 09:51:00,58.8,53.3,29.87,SSW,202,1.9,3.5,82,0.00,CLR,SKC,0.00,WeatherDisplay:10.37,2013-04-29 13:51:00,
2013-04-29 09:56:00,58.8,53.3,29.88,SW,225,2.2,4.6,82,0.00,CLR,SKC,0.00,WeatherDisplay:10.37,2013-04-29 13:56:00,
2013-04-29 10:01:00,58.8,53.3,29.87,SSW,202,0.6,3.5,82,0.00,CLR,SKC,0.00,WeatherDisplay:10.37,2013-04-29 14:01:00,
2013-04-29 10:06:00,59.0,53.5,29.87,South,180,2.2,2.3,82,0.00,CLR,SKC,0.00,WeatherDisplay:10.37,2013-04-29 14:06:00,
2013-04-29 10:11:00,59.4,53.9,29.87,SW,225,1.1,1.1,82,0.00,CLR,SKC,0.00,WeatherDisplay:10.37,2013-04-29 14:11:00,
2013-04-29 10:16:00,59.9,54.1,29.87,WSW,248,1.1,4.6,81,0.00,CLR,SKC,0.00,WeatherDisplay:10.37,2013-04-29 14:16:00,
2013-04-29 10:21:00,60.4,54.2,29.87,SE,135,0.3,2.3,80,0.00,CLR,SKC,0.00,WeatherDisplay:10.37,2013-04-29 14:21:00,
2013-04-29 10:27:00,60.8,54.6,29.87,WSW,248,0.0,0.0,80,0.00,CLR,SKC,0.00,WeatherDisplay:10.37,2013-04-29 14:27:00,
2013-04-29 10:32:00,61.3,55.1,29.88,South,180,0.2,3.6,80,0.00,CLR,SKC,0.00,WeatherDisplay:10.37,2013-04-29 14:32:00,
2013-04-29 10:37:00,61.7,55.1,29.88,SW,225,0.0,1.1,79,0.00,CLR,SKC,0.00,WeatherDisplay:10.37,2013-04-29 14:37:00,
2013-04-29 10:42:00,61.9,55.3,29.87,SE,135,0.0,1.1,79,0.00,CLR,SKC,0.00,WeatherDisplay:10.37,2013-04-29 14:42:00,
2013-04-29 10:47:00,62.4,55.8,29.86,WSW,248,2.1,3.5,79,0.00,CLR,SKC,0.00,WeatherDisplay:10.37,2013-04-29 14:47:00,
2013-04-29 10:52:00,63.0,56.0,29.86,SSW,202,0.7,3.5,78,0.00,CLR,SKC,0.00,WeatherDisplay:10.37,2013-04-29 14:52:00,
2013-04-29 10:57:00,63.5,56.2,29.86,WNW,292,0.0,0.0,77,0.00,CLR,SKC,0.00,WeatherDisplay:10.37,2013-04-29 14:57:00,
2013-04-29 11:02:00,64.0,56.7,29.86,WSW,248,1.1,0.0,77,0.00,CLR,SKC,0.00,WeatherDisplay:10.37,2013-04-29 15:02:00,
2013-04-29 11:07:00,64.6,56.8,29.87,SW,225,0.6,3.5,76,0.00,CLR,SKC,0.00,WeatherDisplay:10.37,2013-04-29 15:07:00,
2013-04-29 11:12:00,65.1,57.0,29.86,SW,225,0.4,4.0,75,0.00,CLR,SKC,0.00,WeatherDisplay:10.37,2013-04-29 15:12:00,
2013-04-29 11:17:00,65.8,57.3,29.87,SW,225,2.1,5.8,74,0.00,CLR,SKC,0.00,WeatherDisplay:10.37,2013-04-29 15:17:00,
2013-04-29 11:22:00,66.4,57.8,29.87,SW,225,2.1,3.8,74,0.00,CLR,SKC,0.00,WeatherDisplay:10.37,2013-04-29 15:22:00,
2013-04-29 11:27:00,66.7,57.4,29.86,WSW,248,1.0,3.5,72,0.00,CLR,SKC,0.00,WeatherDisplay:10.37,2013-04-29 15:27:00,
2013-04-29 11:32:00,66.9,57.6,29.86,SW,225,2.3,5.8,72,0.00,CLR,SKC,0.00,WeatherDisplay:10.37,2013-04-29 15:32:00,
2013-04-29 11:37:00,66.9,57.2,29.86,SE,135,1.8,5.8,71,0.00,CLR,SKC,0.00,WeatherDisplay:10.37,2013-04-29 15:37:00,
2013-04-29 11:42:00,66.6,57.3,29.86,SSW,202,1.1,4.6,72,0.00,CLR,SKC,0.00,WeatherDisplay:10.37,2013-04-29 15:42:00,
2013-04-29 11:47:00,66.7,57.8,29.86,SSW,202,3.2,4.6,73,0.00,CLR,SKC,0.00,WeatherDisplay:10.37,2013-04-29 15:47:00,
2013-04-29 11:52:00,66.9,57.6,29.86,SW,225,3.9,5.8,72,0.00,CLR,SKC,0.00,WeatherDisplay:10.37,2013-04-29 15:52:00,
2013-04-29 11:57:00,67.3,57.9,29.87,SW,225,2.0,2.3,72,0.00,CLR,SKC,0.00,WeatherDisplay:10.37,2013-04-29 15:57:00,
2013-04-29 12:02:00,68.0,58.6,29.87,West,270,5.1,8.1,72,0.00,CLR,SKC,0.00,WeatherDisplay:10.37,2013-04-29 16:02:00,
2013-04-29 12:07:00,68.2,58.8,29.86,SE,135,0.6,4.6,72,0.00,CLR,SKC,0.00,WeatherDisplay:10.37,2013-04-29 16:07:00,
2013-04-29 12:12:00,68.7,59.3,29.86,WSW,248,2.5,3.5,72,0.00,CLR,SKC,0.00,WeatherDisplay:10.37,2013-04-29 16:12:00,
2013-04-29 12:17:00,69.3,59.1,29.87,ENE,68,3.5,5.8,70,0.00,CLR,SKC,0.00,WeatherDisplay:10.37,2013-04-29 16:17:00,
2013-04-29 12:22:00,69.6,59.4,29.87,SSE,158,4.3,8.1,70,0.00,CLR,SKC,0.00,WeatherDisplay:10.37,2013-04-29 16:22:00,
2013-04-29 12:27:00,69.6,59.4,29.87,SSW,202,3.3,6.9,70,0.00,CLR,SKC,0.00,WeatherDisplay:10.37,2013-04-29 16:27:00,
2013-04-29 12:32:00,69.6,59.0,29.87,WSW,248,0.9,4.6,69,0.00,CLR,SKC,0.00,WeatherDisplay:10.37,2013-04-29 16:32:00,
2013-04-29 12:37:00,69.4,58.8,29.86,SSE,158,2.1,5.8,69,0.00,CLR,SKC,0.00,WeatherDisplay:10.37,2013-04-29 16:37:00,
2013-04-29 12:42:00,69.6,59.0,29.86,WSW,248,1.8,5.4,69,0.00,CLR,SKC,0.00,WeatherDisplay:10.37,2013-04-29 16:42:00,
2013-04-29 12:47:00,70.0,59.3,29.86,SSW,202,3.3,5.8,69,0.00,CLR,SKC,0.00,WeatherDisplay:10.37,2013-04-29 16:47:00,
2013-04-29 12:52:00,70.2,59.5,29.86,South,180,1.5,5.8,69,0.00,CLR,SKC,0.00,WeatherDisplay:10.37,2013-04-29 16:52:00,
2013-04-29 12:57:00,70.5,59.4,29.85,SSW,202,2.3,4.0,68,0.00,CLR,SKC,0.00,WeatherDisplay:10.37,2013-04-29 16:57:00,
2013-04-29 13:02:00,70.5,59.0,29.85,WNW,292,0.7,4.6,67,0.00,CLR,SKC,0.00,WeatherDisplay:10.37,2013-04-29 17:02:00,
2013-04-29 13:07:00,70.9,59.4,29.85,WSW,248,2.7,3.5,67,0.00,CLR,SKC,0.00,WeatherDisplay:10.37,2013-04-29 17:07:00,
2013-04-29 13:12:00,70.9,59.4,29.85,WNW,292,0.5,4.6,67,0.00,CLR,SKC,0.00,WeatherDisplay:10.37,2013-04-29 17:12:00,
2013-04-29 13:17:00,71.2,59.3,29.85,WSW,248,0.2,2.3,66,0.00,CLR,SKC,0.00,WeatherDisplay:10.37,2013-04-29 17:17:00,
2013-04-29 13:22:00,71.2,59.3,29.85,SSW,202,4.5,6.9,66,0.00,CLR,SKC,0.00,WeatherDisplay:10.37,2013-04-29 17:22:00,
2013-04-29 13:27:00,71.4,59.0,29.84,SW,225,2.8,9.2,65,0.00,CLR,SKC,0.00,WeatherDisplay:10.37,2013-04-29 17:27:00,
2013-04-29 13:32:00,71.6,58.8,29.84,South,180,5.5,8.1,64,0.00,CLR,SKC,0.00,WeatherDisplay:10.37,2013-04-29 17:32:00,
2013-04-29 13:37:00,71.8,58.5,29.84,SSW,202,1.8,2.5,63,0.00,CLR,SKC,0.00,WeatherDisplay:10.37,2013-04-29 17:37:00,
2013-04-29 13:42:00,71.4,58.2,29.84,SE,135,1.2,2.3,63,0.00,CLR,SKC,0.00,WeatherDisplay:10.37,2013-04-29 17:42:00,
2013-04-29 13:47:00,71.2,57.5,29.84,SSE,158,0.0,9.2,62,0.00,CLR,SKC,0.00,WeatherDisplay:10.37,2013-04-29 17:47:00,
2013-04-29 13:52:00,71.2,57.5,29.84,SE,135,2.1,3.5,62,0.00,CLR,SKC,0.00,WeatherDisplay:10.37,2013-04-29 17:52:00,
2013-04-29 13:57:00,70.9,56.8,29.83,SSE,158,0.7,3.5,61,0.00,CLR,SKC,0.00,WeatherDisplay:10.37,2013-04-29 17:57:00,
2013-04-29 14:02:00,71.1,56.9,29.83,WNW,292,1.2,15.0,61,0.00,CLR,SKC,0.00,WeatherDisplay:10.37,2013-04-29 18:02:00,
2013-04-29 14:07:00,71.8,57.1,29.83,WSW,248,1.7,4.6,60,0.00,CLR,SKC,0.00,WeatherDisplay:10.37,2013-04-29 18:07:00,
2013-04-29 14:12:00,71.8,56.2,29.83,SE,135,1.6,2.3,58,0.00,CLR,SKC,0.00,WeatherDisplay:10.37,2013-04-29 18:12:00,
2013-04-29 14:17:00,72.0,56.8,29.83,SSE,158,2.7,4.6,59,0.00,CLR,SKC,0.00,WeatherDisplay:10.37,2013-04-29 18:17:00,
2013-04-29 14:22:00,71.8,56.7,29.83,SE,135,6.2,6.9,59,0.00,CLR,SKC,0.00,WeatherDisplay:10.37,2013-04-29 18:22:00,
2013-04-29 14:27:00,71.8,56.2,29.83,ESE,112,2.2,5.8,58,0.00,CLR,SKC,0.00,WeatherDisplay:10.37,2013-04-29 18:27:00,
2013-04-29 14:32:00,72.0,56.4,29.83,SSE,158,1.3,3.1,58,0.00,CLR,SKC,0.00,WeatherDisplay:10.37,2013-04-29 18:32:00,
2013-04-29 14:37:00,71.8,56.2,29.82,NNW,338,2.7,5.8,58,0.00,CLR,SKC,0.00,WeatherDisplay:10.37,2013-04-29 18:37:00,
2013-04-29 14:42:00,71.8,56.7,29.82,ESE,112,1.4,4.6,59,0.00,CLR,SKC,0.00,WeatherDisplay:10.37,2013-04-29 18:42:00,
2013-04-29 14:47:00,71.8,55.7,29.82,ESE,112,4.5,5.8,57,0.00,CLR,SKC,0.00,WeatherDisplay:10.37,2013-04-29 18:47:00,
2013-04-29 14:52:00,72.0,56.4,29.82,SSE,158,6.2,6.9,58,0.00,CLR,SKC,0.00,WeatherDisplay:10.37,2013-04-29 18:52:00,
2013-04-29 14:57:00,72.1,56.5,29.82,WSW,248,3.1,5.8,58,0.00,CLR,SKC,0.00,WeatherDisplay:10.37,2013-04-29 18:57:00,
2013-04-29 15:02:00,72.5,56.4,29.82,SSW,202,2.7,7.2,57,0.00,CLR,SKC,0.00,WeatherDisplay:10.37,2013-04-29 19:02:00,
2013-04-29 15:07:00,72.9,57.2,29.82,SE,135,3.3,5.8,58,0.00,CLR,SKC,0.00,WeatherDisplay:10.37,2013-04-29 19:07:00,
2013-04-29 15:12:00,72.9,56.7,29.82,SSW,202,1.1,6.9,57,0.00,CLR,SKC,0.00,WeatherDisplay:10.37,2013-04-29 19:12:00,
2013-04-29 15:17:00,73.0,56.9,29.82,SW,225,3.0,4.6,57,0.00,CLR,SKC,0.00,WeatherDisplay:10.37,2013-04-29 19:17:00,
2013-04-29 15:22:00,73.6,57.4,29.81,SE,135,1.8,6.9,57,0.00,CLR,SKC,0.00,WeatherDisplay:10.37,2013-04-29 19:22:00,
2013-04-29 15:27:00,73.6,56.9,29.82,SE,135,1.4,3.5,56,0.00,CLR,SKC,0.00,WeatherDisplay:10.37,2013-04-29 19:27:00,
2013-04-29 15:32:00,72.7,56.1,29.81,ESE,112,1.7,4.6,56,0.00,CLR,SKC,0.00,WeatherDisplay:10.37,2013-04-29 19:32:00,
2013-04-29 15:37:00,72.5,56.4,29.80,ESE,112,6.7,10.4,57,0.00,CLR,SKC,0.00,WeatherDisplay:10.37,2013-04-29 19:37:00,
2013-04-29 15:42:00,72.3,56.2,29.80,SSE,158,4.6,7.6,57,0.00,CLR,SKC,0.00,WeatherDisplay:10.37,2013-04-29 19:42:00,
2013-04-29 15:47:00,72.3,56.2,29.81,South,180,2.8,10.4,57,0.00,CLR,SKC,0.00,WeatherDisplay:10.37,2013-04-29 19:47:00,
2013-04-29 15:52:00,72.5,55.9,29.80,NW,315,1.4,3.5,56,0.00,CLR,SKC,0.00,WeatherDisplay:10.37,2013-04-29 19:52:00,
2013-04-29 15:57:00,72.7,56.6,29.80,East,90,4.5,6.3,57,0.00,CLR,SKC,0.00,WeatherDisplay:10.37,2013-04-29 19:57:00,
2013-04-29 16:02:00,72.7,56.1,29.80,SSW,202,4.7,5.1,56,0.00,CLR,SKC,0.00,WeatherDisplay:10.37,2013-04-29 20:02:00,
2013-04-29 16:07:00,73.0,56.9,29.80,SE,135,1.3,4.9,57,0.00,CLR,SKC,0.00,WeatherDisplay:10.37,2013-04-29 20:07:00,
2013-04-29 16:12:00,73.0,56.4,29.79,SW,225,3.8,4.6,56,0.00,CLR,SKC,0.00,WeatherDisplay:10.37,2013-04-29 20:12:00,
2013-04-29 16:17:00,72.7,55.6,29.80,ESE,112,3.8,5.8,55,0.00,CLR,SKC,0.00,WeatherDisplay:10.37,2013-04-29 20:17:00,
2013-04-29 16:22:00,72.7,56.1,29.79,SE,135,1.4,3.1,56,0.00,CLR,SKC,0.00,WeatherDisplay:10.37,2013-04-29 20:22:00,
2013-04-29 16:27:00,72.7,56.1,29.79,SE,135,5.5,6.9,56,0.00,CLR,SKC,0.00,WeatherDisplay:10.37,2013-04-29 20:27:00,
2013-04-29 16:32:00,73.0,56.4,29.79,SSE,158,0.9,4.6,56,0.00,CLR,SKC,0.00,WeatherDisplay:10.37,2013-04-29 20:32:00,
2013-04-29 16:37:00,73.2,56.1,29.78,ESE,112,4.1,5.8,55,0.00,CLR,SKC,0.00,WeatherDisplay:10.37,2013-04-29 20:37:00,
2013-04-29 16:42:00,73.2,56.6,29.78,SSE,158,3.9,6.9,56,0.00,CLR,SKC,0.00,WeatherDisplay:10.37,2013-04-29 20:42:00,
2013-04-29 16:47:00,73.4,56.7,29.78,SE,135,5.5,8.1,56,0.00,CLR,SKC,0.00,WeatherDisplay:10.37,2013-04-29 20:47:00,
2013-04-29 16:52:00,73.6,56.9,29.79,South,180,3.1,13.8,56,0.00,CLR,SKC,0.00,WeatherDisplay:10.37,2013-04-29 20:52:00,
2013-04-29 16:57:00,73.4,56.2,29.78,East,90,1.0,3.5,55,0.00,CLR,SKC,0.00,WeatherDisplay:10.37,2013-04-29 20:57:00,
2013-04-29 17:02:00,73.2,56.1,29.78,South,180,4.3,8.1,55,0.00,CLR,SKC,0.00,WeatherDisplay:10.37,2013-04-29 21:02:00,
2013-04-29 17:07:00,73.2,56.1,29.78,SSW,202,4.1,5.1,55,0.00,CLR,SKC,0.00,WeatherDisplay:10.37,2013-04-29 21:07:00,
2013-04-29 17:12:00,73.2,56.1,29.77,SE,135,4.3,4.6,55,0.00,CLR,SKC,0.00,WeatherDisplay:10.37,2013-04-29 21:12:00,
2013-04-29 17:17:00,73.2,56.1,29.78,SE,135,5.3,8.1,55,0.00,CLR,SKC,0.00,WeatherDisplay:10.37,2013-04-29 21:17:00,
2013-04-29 17:22:00,73.0,55.9,29.77,SSW,202,4.2,5.6,55,0.00,CLR,SKC,0.00,WeatherDisplay:10.37,2013-04-29 21:22:00,
2013-04-29 17:27:00,73.0,55.9,29.78,WNW,292,2.7,6.9,55,0.00,CLR,SKC,0.00,WeatherDisplay:10.37,2013-04-29 21:27:00,
2013-04-29 17:32:00,72.9,56.2,29.77,SE,135,3.4,6.3,56,0.00,CLR,SKC,0.00,WeatherDisplay:10.37,2013-04-29 21:32:00,
2013-04-29 17:37:00,72.9,56.2,29.77,SE,135,1.3,2.3,56,0.00,CLR,SKC,0.00,WeatherDisplay:10.37,2013-04-29 21:37:00,
2013-04-29 17:42:00,72.7,56.1,29.77,WNW,292,2.8,7.4,56,0.00,CLR,SKC,0.00,WeatherDisplay:10.37,2013-04-29 21:42:00,
2013-04-29 17:47:00,72.7,56.1,29.77,WSW,248,1.8,3.5,56,0.00,CLR,SKC,0.00,WeatherDisplay:10.37,2013-04-29 21:47:00,
2013-04-29 17:52:00,72.7,56.1,29.76,ESE,112,2.9,11.5,56,0.00,CLR,SKC,0.00,WeatherDisplay:10.37,2013-04-29 21:52:00,
2013-04-29 17:57:00,72.5,55.9,29.77,South,180,6.8,10.4,56,0.00,CLR,SKC,0.00,WeatherDisplay:10.37,2013-04-29 21:57:00,
2013-04-29 18:02:00,72.3,55.7,29.76,SSE,158,2.5,4.6,56,0.00,CLR,SKC,0.00,WeatherDisplay:10.37,2013-04-29 22:02:00,
2013-04-29 18:07:00,72.3,55.7,29.76,SSE,158,1.9,7.4,56,0.00,CLR,SKC,0.00,WeatherDisplay:10.37,2013-04-29 22:07:00,
2013-04-29 18:12:00,72.3,55.7,29.76,SE,135,3.0,8.7,56,0.00,CLR,SKC,0.00,WeatherDisplay:10.37,2013-04-29 22:12:00,
2013-04-29 18:17:00,72.3,56.2,29.76,SSE,158,3.2,3.8,57,0.00,CLR,SKC,0.00,WeatherDisplay:10.37,2013-04-29 22:17:00,
2013-04-29 18:22:00,72.1,55.6,29.76,SSE,158,6.5,15.0,56,0.00,CLR,SKC,0.00,WeatherDisplay:10.37,2013-04-29 22:22:00,
2013-04-29 18:27:00,71.4,55.4,29.77,SSE,158,2.6,4.6,57,0.00,CLR,SKC,0.00,WeatherDisplay:10.37,2013-04-29 22:27:00,
2013-04-29 18:32:00,71.2,55.7,29.76,East,90,3.1,6.9,58,0.00,CLR,SKC,0.00,WeatherDisplay:10.37,2013-04-29 22:32:00,
2013-04-29 18:37:00,71.2,55.7,29.76,SE,135,2.0,5.8,58,0.00,CLR,SKC,0.00,WeatherDisplay:10.37,2013-04-29 22:37:00,
2013-04-29 18:42:00,70.9,55.8,29.77,SSE,158,4.4,5.8,59,0.00,CLR,SKC,0.00,WeatherDisplay:10.37,2013-04-29 22:42:00,
2013-04-29 18:47:00,70.9,55.8,29.76,SE,135,0.1,3.6,59,0.00,CLR,SKC,0.00,WeatherDisplay:10.37,2013-04-29 22:47:00,
2013-04-29 18:52:00,70.9,55.8,29.77,SSE,158,3.1,11.5,59,0.00,CLR,SKC,0.00,WeatherDisplay:10.37,2013-04-29 22:52:00,
2013-04-29 18:57:00,70.9,56.3,29.77,SE,135,3.2,9.2,60,0.00,CLR,SKC,0.00,WeatherDisplay:10.37,2013-04-29 22:57:00,
2013-04-29 19:02:00,70.9,56.3,29.77,SSE,158,2.1,6.5,60,0.00,CLR,SKC,0.00,WeatherDisplay:10.37,2013-04-29 23:02:00,
2013-04-29 19:07:00,70.5,55.5,29.76,SE,135,2.7,4.6,59,0.00,CLR,SKC,0.00,WeatherDisplay:10.37,2013-04-29 23:07:00,
2013-04-29 19:12:00,70.3,55.8,29.76,SE,135,0.5,4.6,60,0.00,CLR,SKC,0.00,WeatherDisplay:10.37,2013-04-29 23:12:00,
2013-04-29 19:17:00,70.0,55.5,29.75,SE,135,5.5,11.5,60,0.00,CLR,SKC,0.00,WeatherDisplay:10.37,2013-04-29 23:17:00,
2013-04-29 19:22:00,69.8,55.7,29.75,ESE,112,3.1,4.6,61,0.00,CLR,SKC,0.00,WeatherDisplay:10.37,2013-04-29 23:22:00,
2013-04-29 19:27:00,69.8,55.7,29.75,SSE,158,2.0,4.5,61,0.00,CLR,SKC,0.00,WeatherDisplay:10.37,2013-04-29 23:27:00,
2013-04-29 19:32:00,69.6,55.6,29.76,ESE,112,2.8,3.5,61,0.00,CLR,SKC,0.00,WeatherDisplay:10.37,2013-04-29 23:32:00,
2013-04-29 19:37:00,69.4,55.4,29.75,SE,135,1.7,6.9,61,0.00,CLR,SKC,0.00,WeatherDisplay:10.37,2013-04-29 23:37:00,
2013-04-29 19:42:00,69.1,55.5,29.75,SSE,158,2.5,8.1,62,0.00,CLR,SKC,0.00,WeatherDisplay:10.37,2013-04-29 23:42:00,
2013-04-29 19:47:00,68.7,55.2,29.75,SE,135,2.6,4.6,62,0.00,CLR,SKC,0.00,WeatherDisplay:10.37,2013-04-29 23:47:00,
2013-04-29 19:52:00,68.2,55.1,29.75,SE,135,2.3,4.6,63,0.00,CLR,SKC,0.00,WeatherDisplay:10.37,2013-04-29 23:52:00,
2013-04-29 19:57:00,67.8,54.8,29.75,SE,135,0.1,0.0,63,0.00,CLR,SKC,0.00,WeatherDisplay:10.37,2013-04-29 23:57:00,
2013-04-29 20:02:00,67.6,55.0,29.76,SSE,158,1.6,5.8,64,0.00,CLR,SKC,0.00,WeatherDisplay:10.37,2013-04-30 00:02:00,
2013-04-29 20:07:00,67.3,54.7,29.76,SSE,158,2.1,3.5,64,0.00,CLR,SKC,0.00,WeatherDisplay:10.37,2013-04-30 00:07:00,
2013-04-29 20:12:00,67.1,54.5,29.75,ESE,112,2.2,5.8,64,0.00,CLR,SKC,0.00,WeatherDisplay:10.37,2013-04-30 00:12:00,
2013-04-29 20:17:00,66.7,54.6,29.75,SSE,158,0.8,2.3,65,0.00,CLR,SKC,0.00,WeatherDisplay:10.37,2013-04-30 00:17:00,
2013-04-29 20:22:00,66.6,54.8,29.75,SSE,158,0.1,2.3,66,0.00,CLR,SKC,0.00,WeatherDisplay:10.37,2013-04-30 00:22:00,
2013-04-29 20:27:00,66.4,54.7,29.75,SE,135,2.4,5.8,66,0.00,CLR,SKC,0.00,WeatherDisplay:10.37,2013-04-30 00:27:00,
2013-04-29 20:32:00,66.0,54.7,29.76,SSE,158,1.8,3.5,67,0.00,CLR,SKC,0.00,WeatherDisplay:10.37,2013-04-30 00:32:00,
2013-04-29 20:37:00,65.8,54.6,29.76,ESE,112,0.0,2.3,67,0.00,CLR,SKC,0.00,WeatherDisplay:10.37,2013-04-30 00:37:00,
2013-04-29 20:42:00,65.5,54.2,29.76,ESE,112,0.6,2.3,67,0.00,CLR,SKC,0.00,WeatherDisplay:10.37,2013-04-30 00:42:00,
2013-04-29 20:47:00,65.3,54.1,29.76,SE,135,1.0,4.6,67,0.00,CLR,SKC,0.00,WeatherDisplay:10.37,2013-04-30 00:47:00,
2013-04-29 20:52:00,65.1,53.9,29.77,ESE,112,0.5,1.1,67,0.00,CLR,SKC,0.00,WeatherDisplay:10.37,2013-04-30 00:52:00,
2013-04-29 20:57:00,64.9,54.1,29.76,SE,135,0.3,2.3,68,0.00,CLR,SKC,0.00,WeatherDisplay:10.37,2013-04-30 00:57:00,
2013-04-29 21:02:00,64.8,53.9,29.77,ESE,112,0.8,5.8,68,0.00,CLR,SKC,0.00,WeatherDisplay:10.37,2013-04-30 01:02:00,
2013-04-29 21:07:00,64.6,53.8,29.77,SE,135,0.9,4.6,68,0.00,CLR,SKC,0.00,WeatherDisplay:10.37,2013-04-30 01:07:00,
2013-04-29 21:12:00,64.2,53.8,29.77,SE,135,0.2,5.8,69,0.00,CLR,SKC,0.00,WeatherDisplay:10.37,2013-04-30 01:12:00,
2013-04-29 21:17:00,64.2,53.8,29.77,SE,135,0.6,2.3,69,0.00,CLR,SKC,0.00,WeatherDisplay:10.37,2013-04-30 01:17:00,
2013-04-29 21:22:00,64.0,53.7,29.77,SE,135,0.8,2.3,69,0.00,CLR,SKC,0.00,WeatherDisplay:10.37,2013-04-30 01:22:00,
2013-04-29 21:27:00,63.9,53.9,29.77,East,90,0.6,1.1,70,0.00,CLR,SKC,0.00,WeatherDisplay:10.37,2013-04-30 01:27:00,
2013-04-29 21:32:00,63.7,53.7,29.77,SSE,158,2.2,6.3,70,0.00,CLR,SKC,0.00,WeatherDisplay:10.37,2013-04-30 01:32:00,
2013-04-29 21:37:00,63.5,53.5,29.77,ESE,112,2.0,3.5,70,0.00,CLR,SKC,0.00,WeatherDisplay:10.37,2013-04-30 01:37:00,
2013-04-29 21:42:00,63.3,53.4,29.77,SE,135,3.1,3.1,70,0.00,CLR,SKC,0.00,WeatherDisplay:10.37,2013-04-30 01:42:00,
2013-04-29 21:47:00,63.3,53.8,29.77,SE,135,2.1,3.1,71,0.00,CLR,SKC,0.00,WeatherDisplay:10.37,2013-04-30 01:47:00,
2013-04-29 21:52:00,63.1,53.6,29.77,SE,135,0.6,2.3,71,0.00,CLR,SKC,0.00,WeatherDisplay:10.37,2013-04-30 01:52:00,
2013-04-29 21:57:00,63.1,53.6,29.77,SE,135,0.5,1.1,71,0.00,CLR,SKC,0.00,WeatherDisplay:10.37,2013-04-30 01:57:00,
2013-04-29 22:02:00,62.8,53.6,29.77,SSE,158,1.8,4.6,72,0.00,CLR,SKC,0.00,WeatherDisplay:10.37,2013-04-30 02:02:00,
2013-04-29 22:07:00,62.6,53.4,29.78,SE,135,0.0,0.0,72,0.00,CLR,SKC,0.00,WeatherDisplay:10.37,2013-04-30 02:07:00,
2013-04-29 22:12:00,62.4,53.3,29.78,SE,135,0.3,1.3,72,0.00,CLR,SKC,0.00,WeatherDisplay:10.37,2013-04-30 02:12:00,
2013-04-29 22:17:00,62.4,53.3,29.78,ESE,112,0.5,0.0,72,0.00,CLR,SKC,0.00,WeatherDisplay:10.37,2013-04-30 02:17:00,
2013-04-29 22:22:00,62.2,53.1,29.78,ESE,112,0.6,0.0,72,0.00,CLR,SKC,0.00,WeatherDisplay:10.37,2013-04-30 02:22:00,
2013-04-29 22:27:00,61.9,53.1,29.79,ESE,112,0.4,0.0,73,0.00,CLR,SKC,0.00,WeatherDisplay:10.37,2013-04-30 02:27:00,
2013-04-29 22:32:00,61.9,53.1,29.78,ESE,112,0.0,0.0,73,0.00,CLR,SKC,0.00,WeatherDisplay:10.37,2013-04-30 02:32:00,
2013-04-29 22:37:00,61.7,53.3,29.78,SE,135,0.5,0.0,74,0.00,CLR,SKC,0.00,WeatherDisplay:10.37,2013-04-30 02:37:00,
2013-04-29 22:42:00,61.5,53.2,29.78,SE,135,1.0,3.5,74,0.00,CLR,SKC,0.00,WeatherDisplay:10.37,2013-04-30 02:42:00,
2013-04-29 22:47:00,61.3,53.0,29.78,SE,135,1.8,4.2,74,0.00,CLR,SKC,0.00,WeatherDisplay:10.37,2013-04-30 02:47:00,
2013-04-29 22:52:00,61.2,53.2,29.78,SE,135,1.3,2.3,75,0.00,CLR,SKC,0.00,WeatherDisplay:10.37,2013-04-30 02:52:00,
2013-04-29 22:57:00,61.0,53.0,29.78,SE,135,0.3,1.3,75,0.00,CLR,SKC,0.00,WeatherDisplay:10.37,2013-04-30 02:57:00,
2013-04-29 23:02:00,60.6,53.0,29.78,SE,135,1.8,3.5,76,0.00,CLR,SKC,0.00,WeatherDisplay:10.37,2013-04-30 03:02:00,
2013-04-29 23:07:00,60.6,53.0,29.79,SE,135,0.4,3.5,76,0.00,CLR,SKC,0.00,WeatherDisplay:10.37,2013-04-30 03:07:00,
2013-04-29 23:12:00,60.4,52.8,29.79,ESE,112,0.3,0.0,76,0.00,CLR,SKC,0.00,WeatherDisplay:10.37,2013-04-30 03:12:00,
2013-04-29 23:17:00,60.3,52.7,29.78,SE,135,1.3,3.5,76,0.00,CLR,SKC,0.00,WeatherDisplay:10.37,2013-04-30 03:17:00,
2013-04-29 23:22:00,60.1,52.8,29.79,SE,135,0.3,3.5,77,0.00,CLR,SKC,0.00,WeatherDisplay:10.37,2013-04-30 03:22:00,
2013-04-29 23:27:00,59.9,52.7,29.78,SSE,158,3.5,3.5,77,0.00,CLR,SKC,0.00,WeatherDisplay:10.37,2013-04-30 03:27:00,
2013-04-29 23:32:00,59.9,52.7,29.78,SE,135,0.5,2.3,77,0.00,CLR,SKC,0.00,WeatherDisplay:10.37,2013-04-30 03:32:00,
2013-04-29 23:37:00,59.7,52.5,29.79,East,90,1.5,1.5,77,0.00,CLR,SKC,0.00,WeatherDisplay:10.37,2013-04-30 03:37:00,
2013-04-29 23:42:00,59.5,52.3,29.79,ESE,112,2.2,4.6,77,0.00,CLR,SKC,0.00,WeatherDisplay:10.37,2013-04-30 03:42:00,
2013-04-29 23:47:00,59.5,52.7,29.79,SE,135,0.1,3.5,78,0.00,CLR,SKC,0.00,WeatherDisplay:10.37,2013-04-30 03:47:00,
2013-04-29 23:52:00,59.5,52.7,29.79,ESE,112,2.1,5.8,78,0.00,CLR,SKC,0.00,WeatherDisplay:10.37,2013-04-30 03:52:00,
2013-04-29 23:57:00,59.4,52.5,29.79,ESE,112,1.0,4.6,78,0.00,CLR,SKC,0.00,WeatherDisplay:10.37,2013-04-30 03:57:00,